Weather History for Pensacola, FL

Change the Weather History Date:

Wednesday, January 16, 2013

  Actual Average Record
Temperature  
Mean Temperature 59 °F 51 °F  
Max Temperature 71 °F 60 °F 78 °F (1950)
Min Temperature 46 °F 42 °F 21 °F (1972)
Degree Days  
Heating Degree Days 6 14  
Month to date heating degree days 106 224  
Since 1 July heating degree days 550 806  
Cooling Degree Days 0 0  
Month to date cooling degree days 22 0  
Year to date cooling degree days 22 0  
Growing Degree Days 8 (Base 50)    
Moisture  
Dew Point 57 °F    
Average Humidity 94    
Maximum Humidity 97    
Minimum Humidity 90    
Precipitation  
Precipitation 1.10 in 0.15 in 2.23 in (1924)
Month to date precipitation 2.05 2.24  
Year to date precipitation 2.05 2.24  
Snow  
Snow 0.00 in 0.00 in - ()
Month to date snowfall 0.0 0.0  
Since 1 July snowfall 0.0 0.0  
Snow Depth 0.00 in    
Sea Level Pressure  
Sea Level Pressure 29.97 in    
Wind  
Wind Speed 10 mph (NW)    
Max Wind Speed 20 mph    
Max Gust Speed 25 mph    
Visibility 6 miles    
Events Rain    
T = Trace of Precipitation, MM = Missing Value Source: NWS Daily Summary

Daily Weather History Graph

Daily Weather History Graph

Search for Another Location

Airport:

Trip Planner

Search our weather history database for the weather conditions in past years. The results will help you decide how hot, cold, wet, or windy it might be!

Date:

Astronomy

Jan. 16, 2013 Rise Set
Actual Time 6:46 AM CST 5:11 PM CST
Civil Twilight 6:20 AM CST 5:37 PM CST
Nautical Twilight 5:50 AM CST 6:06 PM CST
Astronomical Twilight 5:21 AM CST 6:35 PM CST
Moon 9:48 AM CST (1/16) 10:34 PM CST (1/16)
Length of Visible Light 11h 17m
Length of Day
10h 25m
Waxing Crescent, 28% of the Moon is Illuminated
Jan 16
Waxing Crescent
Jan 18
First Quarter
Jan 26
Full
Feb 3
Last Quarter
Feb 10
New

Hourly Weather History & Observations

Time (CST) Temp. Windchill Dew Point Humidity Pressure Visibility Wind Dir Wind Speed Gust Speed Precip Events Conditions
12:33 AM 71.6 °F - 68.0 °F 88% 29.94 in 10.0 mi South 11.5 mph - N/A   Overcast
12:53 AM 70.0 °F - 68.0 °F 93% 29.95 in 10.0 mi South 12.7 mph - N/A   Overcast
1:37 AM 69.8 °F - 66.2 °F 88% 29.95 in 3.0 mi SSW 16.1 mph - 0.07 in Rain Heavy Rain
1:44 AM 69.8 °F - 66.2 °F 88% 29.94 in 5.0 mi SSW 11.5 mph - 0.09 in Rain Light Rain
1:53 AM 69.8 °F - 66.2 °F 88% 29.95 in 10.0 mi SSW 11.5 mph - N/A Rain Light Rain
2:53 AM 71.1 °F - 68.0 °F 90% 29.95 in 10.0 mi South 10.4 mph - 0.04 in Rain Light Rain
3:17 AM 71.6 °F - 68.0 °F 88% 29.94 in 10.0 mi SSW 11.5 mph - 0.00 in   Mostly Cloudy
3:23 AM 71.6 °F - 69.8 °F 94% 29.93 in 9.0 mi South 12.7 mph - 0.00 in   Mostly Cloudy
3:32 AM 71.6 °F - 69.8 °F 94% 29.94 in 8.0 mi South 12.7 mph - 0.00 in   Overcast
3:53 AM 71.1 °F - 69.1 °F 93% 29.95 in 8.0 mi SSW 10.4 mph - 0.00 in   Overcast
4:14 AM 71.6 °F - 69.8 °F 94% 29.93 in 7.0 mi SSW 12.7 mph - N/A   Overcast
4:53 AM 71.1 °F - 69.1 °F 93% 29.94 in 5.0 mi South 13.8 mph - N/A   Overcast
5:02 AM 71.6 °F - 69.8 °F 94% 29.93 in 1.8 mi South 15.0 mph - N/A   Overcast
5:53 AM 71.1 °F - 69.1 °F 93% 29.94 in 5.0 mi South 16.1 mph - N/A   Overcast
6:53 AM 71.1 °F - 69.1 °F 93% 29.96 in 5.0 mi SSW 10.4 mph 19.6 mph 0.00 in   Overcast
7:40 AM 60.8 °F - 59.0 °F 94% 29.97 in 1.8 mi NNW 11.5 mph - 0.10 in Rain Heavy Rain
7:48 AM 60.8 °F - 59.0 °F 94% 29.98 in 3.0 mi NNW 5.8 mph - 0.15 in Rain Light Rain
7:53 AM 60.1 °F - 57.9 °F 93% 29.99 in 5.0 mi NW 10.4 mph - 0.16 in Rain Light Rain
8:19 AM 59.0 °F - 57.2 °F 94% 29.99 in 1.0 mi North 6.9 mph - 0.00 in   Overcast
8:53 AM 57.0 °F - 55.0 °F 93% 30.01 in 1.0 mi NNW 12.7 mph - 0.04 in Rain Light Rain
9:34 AM 57.2 °F - 55.4 °F 94% 30.01 in 4.0 mi North 5.8 mph - 0.30 in Rain Light Rain
9:53 AM 57.9 °F - 55.9 °F 93% 30.01 in 10.0 mi NNW 12.7 mph - 0.30 in   Overcast
10:53 AM 57.0 °F - 55.0 °F 93% 29.99 in 8.0 mi NNW 9.2 mph - 0.00 in Rain Light Rain
11:34 AM 55.4 °F - 53.6 °F 94% 29.97 in 1.0 mi North 6.9 mph - 0.03 in Rain Heavy Rain
11:53 AM 55.9 °F - 54.0 °F 93% 29.98 in 3.0 mi NNW 10.4 mph - 0.08 in Rain Light Rain
12:00 PM 55.4 °F - 53.6 °F 94% 29.96 in 2.0 mi NNW 9.2 mph - 0.01 in Rain Heavy Rain
12:37 PM 55.4 °F - 53.6 °F 94% 29.96 in 1.0 mi NNW 11.5 mph - 0.14 in Rain Heavy Rain
12:53 PM 55.0 °F - 53.1 °F 93% 29.97 in 1.0 mi North 9.2 mph - 0.23 in Rain Heavy Rain
1:00 PM 55.4 °F - 53.6 °F 94% 29.95 in 2.0 mi North 6.9 mph - 0.04 in Rain Rain
1:53 PM 55.4 °F - 53.6 °F 94% 29.95 in 2.0 mi North 4.6 mph - N/A Rain Rain
2:53 PM 55.0 °F - 53.1 °F 93% 29.98 in 2.0 mi NNW 6.9 mph - 0.04 in Rain Light Rain
3:00 PM 55.4 °F - 51.8 °F 88% 29.97 in 8.0 mi NNW 11.5 mph - 0.01 in Rain Light Rain
3:49 PM 53.6 °F - 51.8 °F 94% 29.96 in 10.0 mi NNW 15.0 mph - 0.01 in   Overcast
3:53 PM 53.1 °F - 51.1 °F 93% 29.97 in 6.0 mi NNW 16.1 mph - 0.01 in   Overcast
4:18 PM 51.8 °F - 50.0 °F 94% 29.97 in 10.0 mi NNW 10.4 mph - N/A   Overcast
4:29 PM 51.8 °F - 50.0 °F 94% 29.98 in 10.0 mi NNW 10.4 mph - N/A   Overcast
4:53 PM 51.1 °F - 48.9 °F 92% 30.01 in 10.0 mi NW 8.1 mph - 0.00 in Rain Light Rain
5:53 PM 50.0 °F - 48.0 °F 93% 30.02 in 10.0 mi NNW 6.9 mph - 0.00 in   Overcast
6:53 PM 50.0 °F - 48.0 °F 93% 30.01 in 10.0 mi North 5.8 mph - 0.00 in   Overcast
7:53 PM 50.0 °F - 48.0 °F 93% 30.01 in 10.0 mi North 8.1 mph - 0.00 in Rain Light Rain
8:53 PM 50.0 °F - 48.0 °F 93% 30.01 in 10.0 mi NNW 3.5 mph - 0.01 in   Overcast
9:53 PM 50.0 °F - 48.0 °F 93% 30.01 in 10.0 mi NW 6.9 mph - 0.00 in Rain Light Rain
10:19 PM 48.2 °F - 46.4 °F 93% 30.01 in 10.0 mi WNW 10.4 mph - 0.00 in Rain Light Rain
10:53 PM 46.9 °F - 46.0 °F 97% 30.03 in 4.0 mi West 11.5 mph - 0.00 in   Overcast
11:17 PM 46.4 °F 41.1 °F 44.6 °F 93% 30.02 in 5.0 mi WNW 11.5 mph - N/A   Overcast
11:53 PM 46.0 °F 41.9 °F 45.0 °F 96% 30.03 in 8.0 mi WNW 8.1 mph - N/A   Overcast